Regional Weather Roundup
Issued by NWS New Orleans/Baton Rouge, LA

Home | Current Version | Previous Version | Text Only | Print | Product List | Glossary On
Versions: 1 2 3 4 5 6 7 8 9 10 11 12 13 14 15 16 17 18 19 20 21 22 23 24 25 26 27 28 29 30 31 32 33 34 35 36 37 38 39 40 41 42 43 44 45 46 47 48 49 50
051
ASUS44 KLIX 202201
RWRLIX
NEW ORLEANS REGIONAL WEATHER ROUNDUP
NATIONAL WEATHER SERVICE NEW ORLEANS LA
500 PM CDT MON OCT 20 2014

NOTE: "FAIR" INDICATES FEW OR NO CLOUDS BELOW 12,000 FEET WITH NO
      SIGNIFICANT WEATHER AND/OR OBSTRUCTIONS TO VISIBILITY.
      SKY/WX - SKY CONDITION AND SIGNIFICANT WEATHER.
      TMP - AIR TEMPERATURE.     DP    - DEWPOINT TEMPERATURE.
      RH  - RELATIVE HUMIDITY.   PRES  - PRESSURE.
      HI  - HEAT INDEX.          WCI   - WIND CHILL INDEX.

*  THESE STATIONS ARE NOT NWS OR FAA STATIONS AND ARE NOT UNDER
   NWS QUALITY CONTROL.

LAZ038-040-048-061>063-065>067-069-202300-
SOUTHEAST LOUISIANA

CITY           SKY/WX    TMP DP  RH WIND       PRES   REMARKS
N.O. AUDUBON   NOT AVBL
N.O. INTL ARPT MOSUNNY   77  49  37 N8        29.99S
N.O. LAKEFRONT MOSUNNY   78  53  41 NW9       29.99F
N.O. DOWNTOWN*   N/A     77  50  38 N5        29.99F
SLIDELL        MOSUNNY   78  52  40 NE7       29.99S
BATON ROUGE    SUNNY     77  52  41 N5        30.00F
BOOTHVILLE     CLOUDY    74  66  76 NE7       29.98F
BELLE CHASSE   MOSUNNY   79  55  43 NE6       29.98S
BOGALUSA*        N/A     77  48  36 N5        30.01S
NEW ROADS*       N/A     76  54  46 NW5       30.01R
GONZALES*        N/A     77  56  47 N7        29.99S
HAMMOND*       NOT AVBL
HOUMA*         SUNNY     81  57  44 NE6       29.97F
PORT FOURCHON* CLEAR     77  64  65 E9        30.01S

$$

MSZ070-080>082-202300-
SOUTHERN MISSISSIPPI

CITY           SKY/WX    TMP DP  RH WIND       PRES   REMARKS
MCCOMB         MOSUNNY   75  51  43 NW3       30.01S
GULFPORT       MOSUNNY   78  48  34 N3        29.98S
BILOXI         SUNNY     77  53  43 SW7       29.99R
PASCAGOULA     SUNNY     77  53  43 CALM      29.98S

$$

COASTAL OBSERVATIONS
LAKE AND NEARSHORE STATIONS

STATION/POSITION TIME  TEMP    WIND        PRES    WAVE
                       AIR SEA DIR/SP/G            HT/PER
                 (UTC) (F)     (DEG/KT/KT) (MB)    (FT/S)
PASCAGOULA       2100   75     200/  8/ 11 1014.9
WAVELAND YACHT   2100   76     310/  5/  6 1014.8
GRAND ISLE       2100   75 78   90/  7/ 11 1015.6
SOUTHWEST PASS   2100   82 85              1015.0
NEW CANAL        2100   74 73  360/  5/  6 1015.9
SHELL BEACH      2100   74 70   10/  5/  6 1015.3

OFFSHORE STATIONS

STATION/POSITION TIME  TEMP    WIND        PRES    WAVE
                       AIR SEA DIR/SP/G            HT/PER
                 (UTC) (F)     (DEG/KT/KT) (MB)    (FT/S)
64 S DAUPHIN ISL 2142   75 80   50/  6/  8 1015.5    1/ 4

$$




USA.gov is the U.S. government's official web portal to all federal, state and local government web resources and services.